Location: Unspecified
(43.4354°N, 0.0000°E)
Time: 05:14:00
(UTC+00:00)

A-11 Canister half - Pass Details

Date: 21 June 2019
Orbit: 1514 x 1686 km, 47.2° (Epoch: 21 August)

Event Time Altitude Azimuth Distance (km) Brightness Sun altitude
Rises 09:44:55 0° 212° (SSW) 4,912 11.6 55.5°
Reaches altitude 10° 09:48:17 10° 206° (SSW) 3,913 11.3 56.1°
Maximum altitude 09:57:32 45° 138° (SE) 2,128 11.6 57.6°
Drops below altitude 10° 10:06:32 10° 71° (ENE) 3,808 11.5 59.0°
Sets 10:09:45 0° 65° (ENE) 4,772 11.8 59.5°
